一网星座-0704 (ONEWEB-0704)

导读 | 星芒AI

ONEWE-0704 是 OneWeb 卫星通信星座计划中的一颗低轨通信卫星,旨在为全球提供高速互联网服务。该卫星由阿丽亚娜集团制造,采用标准化设计,具备高容量和高效率的通信能力。它运行在约 1200 公里的近地轨道,与其他 OneWeb 卫星协同工作,支持偏远和农村地区的宽带接入。该卫星于 2023 年发射,是 OneWeb 扩展其全球网络覆盖、实现数字包容性目标的重要组成部分。

基本信息
目录编号:
61609
目录名称:
ONEWEB-0704
国际标识:
2024-188R
轨道中心:
EARTH
卫星名称:
一网星座-0704
卫星全名:
一网星座-0704 (ONEWEB-0704)
卫星状态:
在轨 (已飞行421 天)
发射日期:
2024-10-20 UTC
国别 :
英国 (GB)
星等 :
--
轨道信息
数据来源 国际轨道数据 AOE轨道数据
星历时间 2025-12-14T23:59:08+0800
1天前
查看轨道信息
2025-12-12T04:00:00+0800
3天前
查看轨道信息
半长轴 7599.843km 7599.846km
偏心率 0.0000827 0.0000938
轨道倾角 87.883° 87.882°
近地点辐角 80.682° 83.103°
升交点赤经 73.012° 73.575°
平近点角 279.440° 241.565°
近地点 1221.079km 1220.998km
远地点 1222.337km 1222.424km
周期 109.892分钟 109.892分钟
每日圈数 13.103758 13.10375
详细信息
卫星平台:
0704
平衡模式:
三轴稳定
覆盖范围:
全球
运营商:
一网卫星公司
运营商所在国:
英国
制造商(研发单位):
空客防务与航天公司
制造商所在国:
法国大都会
使用方式:
暂无
卫星简介
OneWeb 计划是一项全球卫星互联网项目,旨在通过发射低轨道卫星,为全球偏远和无法接入互联网的地区提供高速网络连接。OneWeb 的目标是打造一个由数百颗卫星组成的网络,帮助缩小全球数字鸿沟,推动教育、医疗和经济发展。
2D轨道图
3D轨道图
轨道高度分析图
轨道倾角分析图
轨道综合分析图
查看轨道综合分析图